Stations météo

Publicité
Marseille/Marignane, France (7650): Température de l'air & dewpoint: 10.01.2018 09:00:00 - 16.01.2018 09:00:00 (CET)Marseille/Marignane, France (7650): Température de l'air 5cm: 10.01.2018 09:00:00 - 16.01.2018 09:00:00 (CET)Marseille/Marignane, France (7650): Température de l'air -20cm & Température de l'air -100cm: 10.01.2018 09:00:00 - 16.01.2018 09:00:00 (CET)Marseille/Marignane, France (7650): Vitesse du vent & gusts: 10.01.2018 09:00:00 - 16.01.2018 09:00:00 (CET)Marseille/Marignane, France (7650): Direction du vent: 10.01.2018 09:00:00 - 16.01.2018 09:00:00 (CET)Marseille/Marignane, France (7650): reduced air pressure: 10.01.2018 09:00:00 - 16.01.2018 09:00:00 (CET)Marseille/Marignane, France (7650): visibility: 10.01.2018 09:00:00 - 16.01.2018 09:00:00 (CET)Marseille/Marignane, France (7650): Ensoleillement: 10.01.2018 09:00:00 - 16.01.2018 09:00:00 (CET)Marseille/Marignane, France (7650): Quantités de précipitations: 10.01.2018 09:00:00 - 16.01.2018 09:00:00 (CET)
Date & Time tt [°C] td [°C] tt 5cm [°C] tt -20cm [°C] tt -100cm [°C] ff [km/h] ff [knt] fx [km/h] fx [knt] dd ppp [hPa] vv [km] sd [min] rr [mm]
16.01.2018 09:00:00 - - - - - - - - - - - - - -
16.01.2018 08:00:00 11,6 7,9 9,3 8,8 12,3 3 2 13 7 WSW 1016,6 36 0 0,0
16.01.2018 07:00:00 10,7 7,2 9,1 8,8 12,3 3 2 6 3 E 1016,4 60 0 0,0
16.01.2018 06:00:00 10,3 6,6 9,0 8,7 12,3 0 0 34 18 N 1016,7 10 0 0,0
16.01.2018 05:00:00 10,2 7,1 8,4 8,7 12,3 15 8 20 11 WSW 1017,3 19 0 0,0
16.01.2018 04:00:00 9,5 6,9 8,4 8,7 12,3 4 2 14 7 S 1017,5 36 0 0,2
16.01.2018 03:00:00 9,4 6,8 8,2 8,7 12,3 6 3 11 6 S 1018,4 19 0 0,0
16.01.2018 02:00:00 9,1 6,4 7,6 8,8 12,3 7 4 11 6 SE 1018,7 16 0 0,0
16.01.2018 01:00:00 9,6 6,5 7,3 8,9 12,3 0 0 10 5 N 1019,8 10 0 0,0
16.01.2018 00:00:00 9,4 5,6 7,5 9,0 12,3 4 2 9 5 - 1020,5 10 0 0,0
15.01.2018 23:00:00 9,5 6,0 8,1 9,1 12,3 5 3 14 8 SE 1020,7 11 0 0,0
15.01.2018 22:00:00 8,9 6,0 7,5 9,2 12,3 8 5 11 6 ESE 1021,1 14 0 0,0
15.01.2018 21:00:00 9,0 5,6 7,7 9,5 12,3 0 0 6 3 N 1021,4 10 0 0,0
15.01.2018 20:00:00 9,3 5,7 7,8 9,6 12,3 7 4 13 7 WSW 1021,2 19 0 0,0
15.01.2018 19:00:00 10,4 6,5 8,1 9,7 12,3 5 3 8 5 W 1020,9 18 0 0,0
15.01.2018 18:00:00 11,2 6,3 9,6 9,8 12,3 5 3 10 5 S 1020,6 10 0 0,0
15.01.2018 17:00:00 11,0 4,2 10,9 9,8 12,3 5 3 15 8 S 1021,0 10 0 0,0
15.01.2018 16:00:00 11,8 4,5 11,9 9,6 12,3 4 2 6 3 WSW 1021,4 10 0 0,0
15.01.2018 15:00:00 11,0 4,2 11,8 9,3 12,3 2 1 13 7 - 1021,6 10 5 0,0
15.01.2018 14:00:00 11,9 4,1 12,8 8,8 12,3 8 4 13 7 W 1021,4 10 52 0,0
15.01.2018 13:00:00 10,9 4,6 11,6 8,5 12,3 7 4 27 15 W 1022,5 16 0 0,0
15.01.2018 12:00:00 10,1 4,2 10,6 8,2 12,3 2 1 9 5 - 1023,3 10 17 0,0
15.01.2018 11:00:00 10,4 5,0 10,7 7,9 12,3 5 3 8 5 WSW 1023,7 10 27 0,0
15.01.2018 10:00:00 9,8 4,2 8,5 7,9 12,3 4 2 16 9 NNW 1023,2 26 1 0,0
15.01.2018 09:00:00 8,5 5,2 7,6 7,8 12,3 0 0 12 7 N 1022,7 17 0 0,0
15.01.2018 08:00:00 8,9 3,9 7,5 7,9 12,3 9 5 23 13 E 1022,2 10 0 0,0
15.01.2018 07:00:00 8,0 4,2 7,3 7,9 12,3 4 2 9 5 SW 1021,9 20 0 0,0
15.01.2018 06:00:00 8,8 3,2 7,4 7,9 12,3 3 2 7 4 SE 1021,2 36 0 0,0
15.01.2018 05:00:00 9,0 3,2 7,8 8,0 12,3 4 2 23 12 - 1021,1 10 0 0,0
15.01.2018 04:00:00 9,5 3,0 8,6 8,1 12,3 14 8 24 13 E 1020,7 40 0 0,0
15.01.2018 03:00:00 9,9 3,0 9,2 8,1 12,3 15 8 29 16 ENE 1021,2 10 0 0,0
15.01.2018 02:00:00 9,9 3,2 9,1 8,1 12,4 15 8 30 16 ENE 1021,2 10 0 0,0
15.01.2018 01:00:00 9,8 3,5 9,1 8,2 12,4 21 11 39 21 E 1021,1 10 0 0,0
15.01.2018 00:00:00 9,6 3,3 9,0 8,2 12,4 17 9 30 16 ENE 1021,0 47 0 0,0
14.01.2018 23:00:00 9,7 3,6 8,9 8,3 12,3 21 11 34 18 E 1020,4 10 0 0,0
14.01.2018 22:00:00 9,6 3,6 9,0 8,4 12,4 21 11 38 21 E 1020,1 37 0 0,0
14.01.2018 21:00:00 10,0 3,7 9,2 8,5 12,4 26 14 45 24 E 1019,5 46 0 0,0
14.01.2018 20:00:00 9,8 4,0 8,7 8,6 12,4 27 14 44 24 ENE 1019,0 44 0 0,0
14.01.2018 19:00:00 9,5 4,5 8,8 8,7 12,4 26 14 39 21 ENE 1018,6 40 0 0,0
14.01.2018 18:00:00 10,1 4,7 9,4 8,7 12,4 18 10 32 17 ENE 1018,3 38 0 0,0
14.01.2018 17:00:00 10,7 5,0 9,4 8,6 12,4 18 10 29 16 ENE 1017,8 10 30 0,0
14.01.2018 16:00:00 11,2 6,3 9,4 8,4 12,4 16 9 29 16 E 1017,7 36 10 0,0
14.01.2018 15:00:00 10,3 6,6 8,7 8,2 12,4 12 6 23 12 ESE 1017,7 21 0 0,8
14.01.2018 14:00:00 11,6 5,5 9,2 8,0 12,4 18 10 36 19 E 1017,2 12 0 0,2
14.01.2018 13:00:00 12,2 4,4 12,2 7,7 12,4 24 13 36 20 ENE 1017,2 10 3 0,0
14.01.2018 12:00:00 11,6 3,9 11,6 7,6 12,4 24 13 39 21 ENE 1017,9 10 0 0,0
14.01.2018 11:00:00 11,1 3,6 10,1 7,5 12,4 18 10 30 16 ENE 1018,1 39 0 0,0
14.01.2018 10:00:00 10,3 3,3 9,3 7,5 12,4 21 11 29 16 ENE 1017,7 10 0 0,0
14.01.2018 09:00:00 9,6 3,1 8,6 7,5 12,4 14 8 25 13 ENE 1017,6 33 0 0,0
14.01.2018 08:00:00 9,3 3,1 8,2 7,5 12,5 16 9 22 12 E 1017,4 31 0 0,0
14.01.2018 07:00:00 9,2 2,7 8,0 7,5 12,4 14 7 18 10 E 1017,0 33 0 0,0
14.01.2018 06:00:00 9,2 2,5 8,1 7,6 12,4 14 8 23 12 E 1016,9 33 0 0,0
14.01.2018 05:00:00 9,9 2,3 9,1 7,6 12,4 18 10 26 14 E 1016,9 37 0 0,0
14.01.2018 04:00:00 9,6 2,7 8,9 7,6 12,4 18 10 32 17 E 1017,4 33 0 0,0
14.01.2018 03:00:00 9,6 3,1 9,1 7,6 12,4 23 12 30 16 E 1017,8 32 0 0,0
14.01.2018 02:00:00 9,8 3,3 8,8 7,6 12,5 18 10 24 13 E 1018,2 10 0 0,0
14.01.2018 01:00:00 9,7 3,9 8,5 7,6 12,4 16 8 21 11 E 1018,7 29 0 0,0
14.01.2018 00:00:00 10,3 3,8 9,2 7,7 12,4 16 8 26 14 E 1019,2 36 0 0,0
13.01.2018 23:00:00 10,2 3,7 9,0 7,7 12,4 10 5 22 12 E 1019,4 34 0 0,0
13.01.2018 22:00:00 9,9 4,1 8,8 7,8 12,5 14 8 22 12 ESE 1019,8 32 0 0,0
13.01.2018 21:00:00 10,1 4,5 8,9 7,9 12,5 16 9 24 13 E 1019,6 27 0 0,0
13.01.2018 20:00:00 10,1 4,5 8,4 8,0 12,5 17 9 22 12 E 1019,8 24 0 0,0
13.01.2018 19:00:00 10,0 4,8 7,8 8,1 12,5 10 6 18 10 E 1019,9 20 0 0,0
13.01.2018 18:00:00 10,1 5,5 7,9 8,1 12,5 4 2 19 10 SSE 1019,9 25 0 0,0
13.01.2018 17:00:00 11,4 5,5 10,7 7,9 12,5 13 7 29 16 SE 1019,7 36 34 0,0
13.01.2018 16:00:00 12,9 6,2 14,8 7,5 12,5 19 10 31 17 SSE 1019,9 20 60 0,0
13.01.2018 15:00:00 12,8 6,6 13,7 6,9 12,5 19 10 32 17 SSE 1020,1 30 36 0,0
13.01.2018 14:00:00 13,7 7,0 13,3 6,2 12,5 21 12 29 16 SSE 1020,3 30 21 0,0
13.01.2018 13:00:00 13,4 6,9 13,1 5,6 12,5 16 9 26 14 S 1021,0 20 33 0,0
13.01.2018 12:00:00 13,3 6,6 13,6 5,0 12,5 9 5 24 13 - 1021,6 10 57 0,0
13.01.2018 11:00:00 11,4 3,9 9,5 4,9 12,5 2 1 13 7 - 1021,9 10 50 0,0
13.01.2018 10:00:00 7,1 3,2 3,1 5,0 12,5 0 0 9 5 N 1021,6 15 37 0,0
13.01.2018 09:00:00 1,9 -0,5 -1,2 5,1 12,5 6 3 9 5 ESE 1021,1 5 11 0,0
13.01.2018 08:00:00 1,1 -1,1 -1,8 5,3 12,5 4 2 8 4 SE 1020,9 6 0 0,0
13.01.2018 07:00:00 0,8 -1,3 -2,0 5,5 12,5 5 3 10 5 ESE 1020,8 16 0 0,0
13.01.2018 06:00:00 1,5 -0,4 -1,9 5,7 12,5 5 3 7 4 ESE 1020,7 10 0 0,0
13.01.2018 05:00:00 2,7 0,9 -1,6 6,0 12,5 5 3 7 4 ENE 1020,5 10 0 0,0
13.01.2018 04:00:00 2,2 0,3 -0,3 6,2 12,5 4 2 11 6 SW 1021,1 11 0 0,0
13.01.2018 03:00:00 1,6 -0,5 -0,7 6,5 12,5 8 4 13 7 SE 1021,3 10 0 0,0
13.01.2018 02:00:00 3,5 1,5 0,0 6,8 12,5 7 4 12 7 E 1021,7 10 0 0,0
13.01.2018 01:00:00 2,3 0,5 0,6 7,1 12,5 11 6 14 8 SE 1021,8 6 0 0,0
13.01.2018 00:00:00 3,1 1,0 0,6 7,4 12,5 3 2 9 5 SSE 1022,1 8 0 0,0
12.01.2018 23:00:00 3,4 -0,1 0,1 7,7 12,5 3 1 10 5 SSE 1022,0 8 0 0,0
12.01.2018 22:00:00 4,9 2,3 1,9 8,1 12,5 5 3 13 7 ESE 1021,6 10 0 0,0
12.01.2018 21:00:00 5,3 1,8 2,9 8,4 12,5 4 2 10 6 - 1021,1 10 0 0,0
12.01.2018 20:00:00 7,2 2,7 3,8 8,7 12,5 3 2 16 9 SSW 1020,3 14 0 0,0
12.01.2018 19:00:00 7,6 2,5 5,9 8,9 12,5 10 5 19 10 WNW 1019,9 21 0 0,0
12.01.2018 18:00:00 8,6 3,0 7,1 9,0 12,5 13 7 22 12 WNW 1019,7 27 0 0,0
12.01.2018 17:00:00 11,4 3,2 11,6 8,9 12,5 21 11 32 17 NW 1019,3 10 60 0,0
12.01.2018 16:00:00 12,5 3,2 14,6 8,6 12,5 16 9 29 16 NW 1018,9 40 60 0,0
12.01.2018 15:00:00 13,0 3,1 16,0 8,0 12,5 6 3 9 5 WSW 1018,6 44 60 0,0
12.01.2018 14:00:00 12,2 3,2 15,3 7,4 12,5 7 4 11 6 WSW 1018,6 29 60 0,0
12.01.2018 13:00:00 11,8 4,3 13,3 6,8 12,5 4 2 9 5 - 1019,0 10 60 0,0
12.01.2018 12:00:00 10,2 3,5 12,1 6,3 12,5 8 4 11 6 W 1019,4 10 60 0,0
12.01.2018 11:00:00 8,7 2,9 7,5 6,1 12,5 3 2 8 4 WNW 1019,6 16 60 0,0
12.01.2018 10:00:00 6,8 2,7 4,7 6,2 12,5 5 3 12 6 SE 1019,4 19 34 0,0
12.01.2018 09:00:00 2,9 0,5 0,5 6,4 12,5 9 5 15 8 SE 1018,6 10 25 0,0
12.01.2018 08:00:00 2,1 -0,2 0,8 6,7 12,5 11 6 17 9 SE 1018,1 10 0 0,0
12.01.2018 07:00:00 2,1 -0,3 0,8 6,9 12,5 11 6 15 8 SE 1017,3 19 0 0,0
12.01.2018 06:00:00 2,8 0,5 1,2 7,2 12,5 11 6 18 10 SE 1017,0 22 0 0,0
12.01.2018 05:00:00 3,5 0,5 2,2 7,4 12,5 10 5 22 12 SE 1016,6 26 0 0,0
12.01.2018 04:00:00 7,2 2,7 1,9 7,6 12,5 8 4 27 15 NNE 1016,2 10 0 0,0
12.01.2018 03:00:00 3,4 0,6 1,9 7,9 12,5 15 8 27 15 NW 1016,4 18 0 0,0
12.01.2018 02:00:00 3,1 0,8 1,2 8,2 12,5 5 3 13 7 ESE 1016,0 14 0 0,0
12.01.2018 01:00:00 4,4 0,5 2,0 8,5 12,5 5 3 17 9 N 1015,6 10 0 0,0
12.01.2018 00:00:00 5,5 1,0 3,9 8,7 12,5 4 2 25 14 NE 1015,7 17 0 0,0
11.01.2018 23:00:00 8,8 2,8 6,9 8,9 12,5 18 10 24 13 NNW 1015,1 10 0 0,0
11.01.2018 22:00:00 8,8 3,2 7,5 9,1 12,5 21 11 30 16 NNW 1014,7 50 0 0,0
11.01.2018 21:00:00 9,3 3,5 8,0 9,4 12,5 18 10 31 17 NNW 1014,3 50 0 0,0
11.01.2018 20:00:00 9,7 3,4 8,3 9,6 12,5 17 9 28 15 N 1013,8 48 0 0,0
11.01.2018 19:00:00 10,1 3,1 8,8 9,7 12,4 21 11 32 18 NNW 1013,2 10 0 0,0
11.01.2018 18:00:00 10,6 4,1 9,2 9,9 12,5 11 6 32 17 NNW 1012,7 44 0 0,0
11.01.2018 17:00:00 11,6 4,1 11,0 9,8 12,4 20 11 30 16 NNW 1012,2 46 12 0,0
11.01.2018 16:00:00 12,5 4,0 14,4 9,7 12,4 19 11 31 17 NNW 1011,8 47 60 0,0
11.01.2018 15:00:00 12,1 4,3 14,1 9,5 12,5 23 13 44 24 NNW 1011,4 16 60 0,0
11.01.2018 14:00:00 11,3 4,3 12,8 9,1 12,4 31 17 53 28 NNW 1011,6 19 46 0,0
11.01.2018 13:00:00 11,7 3,9 11,2 8,8 12,4 26 14 37 20 NW 1011,7 15 60 0,0
11.01.2018 12:00:00 9,4 5,9 10,5 8,5 12,4 11 6 14 8 WSW 1012,3 10 37 0,0
11.01.2018 11:00:00 8,3 5,2 8,9 8,4 12,4 6 4 10 5 W 1012,6 14 52 0,0
11.01.2018 10:00:00 7,7 5,5 4,6 8,6 12,5 7 4 12 6 W 1012,3 12 16 0,0
11.01.2018 09:00:00 5,9 4,2 3,1 8,8 12,4 0 0 14 8 N 1012,0 8 0 0,0
11.01.2018 08:00:00 6,2 4,0 3,7 9,0 12,5 8 4 16 9 N 1011,5 10 0 0,0
11.01.2018 07:00:00 7,0 4,8 4,1 9,1 12,4 2 1 19 10 - 1011,4 10 0 0,0
11.01.2018 06:00:00 6,8 4,8 5,3 9,3 12,4 6 4 9 5 W 1011,2 8 0 0,0
11.01.2018 05:00:00 8,0 6,3 6,0 9,4 12,4 5 3 8 4 WNW 1011,4 6 0 0,0
11.01.2018 04:00:00 7,7 5,5 6,5 9,5 12,4 0 0 9 5 N 1011,7 10 0 0,0
11.01.2018 03:00:00 8,7 6,0 7,3 9,6 12,4 2 1 11 6 NW 1012,0 10 0 0,0
11.01.2018 02:00:00 9,0 5,2 7,4 9,8 12,4 5 3 10 5 ENE 1012,1 27 0 0,0
11.01.2018 01:00:00 8,8 5,5 7,1 10,0 12,4 5 3 10 5 ENE 1012,4 25 0 0,0
11.01.2018 00:00:00 7,7 5,7 5,5 10,3 12,4 3 2 7 4 S 1012,7 14 0 0,0
10.01.2018 23:00:00 8,6 6,0 4,9 10,6 12,4 0 0 8 5 N 1012,8 16 0 0,0
10.01.2018 22:00:00 8,4 4,8 5,1 10,9 12,4 5 3 9 5 E 1012,4 10 0 0,0
10.01.2018 21:00:00 9,9 5,5 6,6 11,1 12,4 5 3 8 4 SE 1012,7 10 0 0,0
10.01.2018 20:00:00 10,5 5,9 7,4 11,4 12,4 0 0 8 4 N 1012,7 24 0 0,0
10.01.2018 19:00:00 11,7 6,8 8,8 11,5 12,4 4 2 13 7 - 1013,2 10 0 0,0
10.01.2018 18:00:00 11,4 5,5 8,0 11,7 12,4 3 2 5 3 ESE 1012,6 34 0 0,0
10.01.2018 17:00:00 12,9 5,8 13,3 11,6 12,4 3 2 10 5 WSW 1012,4 33 55 0,0
10.01.2018 16:00:00 13,7 5,8 15,5 11,5 12,4 8 5 10 6 W 1012,4 45 60 0,0
10.01.2018 15:00:00 13,7 5,6 14,4 11,1 12,4 9 5 12 7 WNW 1012,3 28 57 0,0
10.01.2018 14:00:00 13,6 5,7 17,1 10,7 12,4 9 5 11 6 WNW 1012,7 20 60 0,0
10.01.2018 13:00:00 13,9 6,3 14,3 10,4 12,4 5 3 11 6 N 1013,5 20 39 0,0
10.01.2018 12:00:00 12,8 7,0 12,5 10,2 12,3 8 5 13 7 ENE 1014,4 44 0 0,0
10.01.2018 11:00:00 12,4 6,7 12,5 10,1 12,3 7 4 12 7 NNE 1014,7 48 0 0,0
10.01.2018 10:00:00 12,7 4,9 11,7 10,0 12,3 0 0 5 3 N 1014,7 51 4 0,0
10.01.2018 09:00:00 11,8 5,2 10,9 10,1 12,3 4 2 14 7 SSE 1014,3 53 0 0,0

tt = Température de l'air
td = dewpoint
tt 5cm = Température de l'air 5cm
tt -20cm = Température de l'air -20cm
tt -100cm = Température de l'air -100cm
ff = Vitesse du vent
fx = gusts
dd = Direction du vent
ppp = reduced air pressure
vv = visibility
sd = Ensoleillement
rr = Quantités de précipitations

stations d'obs. à proximité